#timestamp,LO_Frequency,Hit,StdDev 
1501218015.0,286047002.6,N,1.4
1501218015.9,286047002.6,N,1.4
1501218035.8,286047001.7,N,1.4
1501218055.6,286047002.2,N,1.4
1501218075.4,286047002.1,N,1.4
1501218095.3,286047004.4,P,1.7
1501218115.1,286047001.8,N,1.4
1501218135.9,286047002.2,N,1.2
1501218155.7,286047001.8,N,1.1
1501218175.5,286047002.1,N,1.0
1501218195.4,286047001.9,N,1.0
1501218215.2,286047002.0,N,0.9
1501218235.1,286047004.4,P,1.1
1501218236.0,286047004.4,P,1.1
1501218255.8,286046999.9,N,1.9
1501218275.6,286047000.1,N,2.0
1501218295.5,286047000.1,N,2.0
1501218315.3,286047002.3,N,1.8
1501218335.2,286047002.7,N,1.7
1501218355.0,286047002.7,N,1.6
1501218355.9,286047002.7,N,1.6
1501218375.7,286047000.4,N,1.6
1501218395.6,286047000.6,N,1.6
1501218415.4,286047002.4,N,1.5
1501218435.3,286046999.9,P,1.0
1501218455.1,286046999.1,N,1.2
1501218475.8,286046999.0,N,1.2
1501218495.7,286046996.5,P,1.7
1501218515.5,286046999.3,N,1.5
1501218535.4,286046999.0,N,1.3
1501218555.2,286046998.7,N,1.2
1501218575.0,286046998.6,N,1.1
1501218575.9,286046998.6,N,1.0
1501218595.8,286046996.6,P,1.0
1501218615.6,286047001.2,N,1.9
1501218635.5,286046999.9,N,1.7
1501218655.3,286047000.8,N,1.7
1501218675.1,286047000.4,N,1.6
1501218695.9,286046999.9,N,1.4
1501218715.7,286047000.3,N,1.4
1501218735.6,286046999.9,N,1.3
1501218755.4,286046999.7,N,1.2
1501218775.2,286046999.7,N,1.2
1501218795.1,286047002.5,P,1.4
1501218796.0,286047002.5,N,1.3
1501218815.8,286047000.3,N,1.3
1501218835.7,286047002.5,N,1.2
1501218855.5,286047002.6,N,1.2
1501218875.3,286047002.8,N,1.2
1501218895.2,286047001.9,N,1.1
1501218915.0,286047002.8,N,1.1
1501218915.9,286047002.8,N,1.1
1501218935.8,286047000.1,N,1.1
1501218955.6,286047002.2,N,1.1
1501218975.4,286047003.6,P,0.9
1501218995.3,286047002.2,N,0.7
1501219015.1,286047000.5,N,1.1
1501219035.9,286046999.8,N,1.3
1501219055.7,286047001.0,N,1.2
1501219075.5,286046999.7,N,1.3
1501219095.4,286047002.6,N,1.3
1501219115.2,286047000.1,N,1.3
1501219135.1,286046999.9,N,1.3
1501219136.0,286046999.9,N,1.3
1501219155.8,286046999.9,N,1.3
1501219175.6,286046998.1,N,1.4
1501219195.5,286047000.8,N,1.4
1501219215.3,286047000.1,N,1.3
1501219235.2,286047002.6,N,1.4
1501219255.9,286047001.7,N,1.4
1501219275.7,286047002.8,N,1.4
1501219295.6,286047000.1,N,1.4
1501219315.4,286047000.9,N,1.3
1501219335.3,286046999.9,N,1.3
1501219355.1,286047004.2,P,1.7
1501219356.0,286047004.2,N,1.6
1501219375.8,286047002.6,N,1.4
1501219395.7,286047001.8,N,1.3
1501219415.6,286047002.3,N,1.2
1501219435.4,286047002.0,N,1.1
1501219455.3,286047002.4,N,1.1
1501219475.1,286047002.1,N,1.0
1501219495.9,286047002.7,N,1.0
1501219515.7,286047002.7,N,0.9
1501219535.5,286047000.8,N,1.0
1501219555.4,286047000.4,N,1.1
1501219575.2,286047000.4,N,1.2
1501219595.1,286047002.0,N,1.1
1501219596.0,286047002.0,N,1.1
1501219615.8,286047001.8,N,1.1
1501219635.6,286047002.3,N,1.0
1501219655.5,286047001.7,N,1.0
1501219675.3,286047004.4,P,1.2
1501219695.2,286047000.7,N,1.5
1501219715.0,286047000.7,N,1.5
1501219715.9,286047000.7,N,1.4
1501219735.7,286047002.6,N,1.4
1501219755.6,286047000.4,N,1.4
1501219775.4,286047001.1,N,1.3
1501219795.3,286047001.2,N,1.2
1501219815.1,286046998.4,N,1.5
1501219835.8,286047001.2,N,1.4
1501219855.7,286047000.7,N,1.4
1501219875.5,286046999.5,N,1.4
1501219895.4,286046998.9,N,1.4
1501219915.2,286046998.7,N,1.5
1501219935.0,286047000.5,N,1.5
1501219935.9,286047000.5,N,1.4
1501219955.8,286047000.3,N,1.4
1501219975.6,286046999.9,N,1.4
1501219995.5,286047000.6,N,1.3
1501220015.3,286046998.1,N,1.4
1501220035.1,286046998.2,N,1.4
1501220055.9,286047000.7,N,1.4
1501220075.7,286047001.1,N,1.4
1501220095.6,286047000.3,N,1.4
1501220115.4,286047000.5,N,1.3
1501220135.2,286046999.9,N,1.3
1501220155.1,286047000.5,N,1.3
1501220156.0,286047000.5,N,1.3
1501220175.8,286047002.6,N,1.3
1501220195.7,286047000.5,N,1.3
1501220215.5,286047000.8,N,1.1
1501220235.3,286046999.2,N,1.1
1501220255.2,286046998.4,N,1.1
1501220275.0,286046998.5,N,1.2
1501220275.9,286046998.5,N,1.1
1501220295.8,286047001.1,N,1.1
1501220315.6,286047000.6,N,1.1
1501220335.4,286047000.9,N,1.1
1501220355.3,286047001.9,N,1.1
1501220375.1,286047002.4,N,1.2
1501220395.9,286047002.0,N,1.2
1501220415.7,286047002.0,N,1.2
1501220435.5,286047000.2,N,1.2
1501220455.4,286047000.8,N,1.2
1501220475.2,286047000.1,N,1.2
1501220495.1,286047000.0,N,1.2
1501220496.0,286047000.0,N,1.2
1501220515.8,286046999.7,N,1.2
1501220535.6,286047002.1,N,1.2
1501220555.5,286047002.1,N,1.2
1501220575.3,286047002.3,N,1.1
1501220595.2,286047000.5,N,1.1
1501220615.9,286047000.6,N,1.1
1501220635.7,286047000.0,N,1.1
1501220655.6,286047002.6,N,1.2
1501220675.4,286047002.2,N,1.2
1501220695.3,286047000.1,N,1.2
1501220715.1,286047000.6,N,1.2
1501220716.0,286047000.6,N,1.2
1501220735.8,286047000.6,N,1.2
1501220755.7,286047002.8,N,1.2
1501220775.5,286046999.7,N,1.2
1501220795.4,286047002.0,N,1.1
1501220815.2,286047003.7,P,1.4
1501220835.0,286047002.6,N,1.1
1501220835.9,286047002.6,N,1.0
1501220855.8,286047002.4,N,0.9
1501220875.6,286047000.4,N,1.1
1501220895.5,286046998.2,N,1.7
1501220915.3,286046998.3,N,1.9
1501220935.1,286047002.7,N,1.9
1501220955.9,286047001.0,N,1.8
1501220975.7,286046998.4,N,1.9
1501220995.5,286047000.1,N,1.8
1501221015.4,286047000.5,N,1.8
1501221035.2,286046998.2,N,1.8
1501221055.1,286047001.0,N,1.8
1501221056.0,286047001.0,N,1.7
1501221075.8,286047000.6,N,1.7
1501221095.6,286047000.5,N,1.6
1501221115.5,286047000.9,N,1.6
1501221135.3,286047000.6,N,1.5
1501221155.2,286047000.4,N,1.5
1501221175.9,286047000.6,N,1.5
1501221195.7,286046999.9,N,1.4
1501221215.6,286047002.7,N,1.5
1501221235.4,286047002.6,N,1.5
1501221255.3,286047002.2,N,1.5
1501221275.1,286047002.7,N,1.5
1501221276.0,286047002.7,N,1.5
1501221295.8,286047004.3,N,1.6
1501221315.7,286047001.8,N,1.6
1501221335.5,286047002.7,N,1.6
1501221355.4,286047002.6,N,1.6
1501221375.2,286047002.3,N,1.5
1501221395.0,286047000.1,N,1.5
1501221395.9,286047000.1,N,1.5
1501221415.8,286047002.8,N,1.5
1501221435.6,286046999.7,N,1.5
1501221455.5,286047002.8,N,1.4
1501221475.3,286047002.5,N,1.4
1501221495.1,286047002.6,N,1.4
1501221515.9,286047002.4,N,1.3
1501221535.7,286047002.5,N,1.3
1501221555.6,286047001.4,N,1.3
1501221575.4,286047001.3,N,1.1
1501221595.2,286047004.4,P,1.4
